Volver al catálogo

STARLINK-11255

ActivoComunicacionesVLEO
NORAD 60730·PAYLOAD·🇺🇸 United States

Lanzado Aug 28, 2024 desde Cape Canaveral Space Force Station

Loading…

Próximos Pases (próximas 24 horas)

TLE

ActualizadoSource: CelesTrak SupGP

Época: Sep 14, 2026, 20:56 UTC

1 60730C 24152L   26257.87270833  .00035804  00000+0  29500-3 0  2575
2 60730  53.1573 263.3985 0001318  95.5712 199.3183 15.69686055    16

Sigue STARLINK-11255 en tiempo real con AllMySat

Download on the App Store